Regional Weather Roundup
Issued by NWS Glasgow, MT

Home | Current Version | Previous Version | Text Only | Print | Product List | Glossary On
Versions: 1 2 3 4 5 6 7 8 9 10 11 12 13 14 15 16 17 18 19 20 21 22 23 24 25 26 27 28 29 30 31 32 33 34 35 36 37 38 39 40 41 42 43 44 45 46 47 48 49 50
000
ASUS45 KGGW 180715
RWRGGW
HOURLY WEATHER ROUNDUP FOR NORTHEAST MONTANA
NATIONAL WEATHER SERVICE GLASGOW MONTANA
1200 AM MST THU DEC 18 2014

NOTE: "FAIR" INDICATES FEW OR NO CLOUDS BELOW 12,000 FEET WITH NO
SIGNIFICANT WEATHER AND/OR OBSTRUCTIONS TO VISISBILITY.

NORTHEAST MONTANA


CITY           SKY/WX    TMP DP  RH WIND       PRES   REMARKS
GLASGOW        LGT SNOW  24  20  84 E9        29.97S FOG
PLENTYWOOD       N/A    N/A N/A N/A NW8G16      N/A
WOLF POINT     CLOUDY    23  18  81 E7        30.01F
JORDAN           N/A     26  23  88 CALM      29.95R
SIDNEY         CLOUDY    23  18  80 SE3       30.04F
GLENDIVE       CLOUDY    23  19  86 SE3       29.99F
MALTA            N/A     26  25  96 E2          N/A

FORT PECK REPORTS


CITY           SKY/WX    TMP DP  RH WIND       PRES   REMARKS
FORT PECK        N/A     25  23  92 E9          N/A
THE PINES        N/A     27  25  92 SE3         N/A

SOUTHEAST MONTANA


CITY           SKY/WX    TMP DP  RH WIND       PRES   REMARKS
BILLINGS       PTCLDY    25  19  78 SW16      29.95R
MILES CITY     CLOUDY    25  22  88 NE5       29.96S
BAKER          LGT SNOW  23  22  96 SE6       29.96F FOG
LIVINGSTON     CLEAR     24  16  71 NW12G28   29.94S

CENTRAL MONTANA


CITY           SKY/WX    TMP DP  RH WIND       PRES   REMARKS
HAVRE          FOG       22  21  96 CALM      29.94S VSB 1/2
LEWISTOWN      CLEAR     23  17  78 W5        29.91R
GREAT FALLS    PTCLDY    31  24  75 SW12      29.89S
CUT BANK       CLOUDY    14  10  84 N5        29.86S
HELENA         CLOUDY    23  21  92 CALM      29.98R FOG
BUTTE          PTCLDY     8   5  87 CALM      29.98R
BOZEMAN        PTCLDY    16  12  84 CALM      29.99S

WESTERN MONTANA


CITY           SKY/WX    TMP DP  RH WIND       PRES   REMARKS
MISSOULA       CLOUDY    28  25  88 CALM      30.00R
KALISPELL      NOT AVBL

NORTH DAKOTA


CITY           SKY/WX    TMP DP  RH WIND       PRES   REMARKS
WILLISTON      CLOUDY    20  15  81 S8        30.05F
DICKINSON      CLOUDY    20  16  84 S8        30.01S
MINOT          PTCLDY     6   2  83 SE5       30.12F
BISMARCK       CLOUDY    17  12  80 S12       30.15F

SOUTHERN SASKATCHEWAN


CITY           SKY/WX    TMP DP  RH WIND       PRES   REMARKS
REGINA         CLOUDY    18  16  93 S14G22    30.02F
ESTEVAN        FLURRIES  16  12  86 S10       30.07F
SWIFT CURRENT  CLOUDY    23  23 100 SW15G22   29.86F



USA.gov is the U.S. government's official web portal to all federal, state and local government web resources and services.